Home > Weather > Kashgar > Past weeks

Flag for China Weather for the Past 2 Weeks in Kashgar, Xinjiang, China

Now
61 °F

Sunny.


Feels Like: 61 °F
Forecast: 59 / 86 °F
Wind: 10 mph from Northwest

Location: Kashi Airport

Current Time: May 5, 2016 at 9:48:06 AM

Latest Report: May 5, 2016 at 9:00 AM


Visibility: 10 mi

Pressure: 29.92 "Hg (25.66 "Hg at 1298m altitude)

Humidity: 45%

Dew Point: 39 °F

Location of KashgarLocation

Historic Weather in Kashgar — Graph

°F

Kashgar Temperature Yesterday

Maximum temperature yesterday: 81 °F (at 2:00 PM)
Minimum temperature yesterday: 66 °F (at 6:00 AM)
Average temperature yesterday: 73 °F

High & Low Weather Summary for the Past Weeks

 TemperatureHumidityPressure
High90 °F (Apr 30, 4:00 PM)48% (May 5, 8:00 AM)30.18 "Hg (May 5, 8:00 AM)
Low57 °F (Apr 23, 3:00 AM)8% (Apr 27, 7:00 PM)29.71 "Hg (May 3, 5:00 PM)
Average70 °F21%29.93 "Hg
* Reported Apr 20 8:00 AM — May 5 8:00 AM, Kashgar, Weather by CustomWeather, © 2016

Note: Actual official high and low records may vary slightly from our data, if they occured in-between our weather recording intervals... More about our weather records

Advertising

Kashgar Weather History for the Previous 24 Hours

Scroll right to see more
 ConditionsComfort  
Time TempWeatherWind HumidityBarometerVisibility
8:00 AM
Thu, May 5
59 °FSunny.8 mph48%29.92 "Hg10 mi
7:00 AM61 °FPassing clouds.8 mph45%29.92 "HgN/A
6:00 AM61 °FScattered clouds.6 mph45%29.92 "Hg5 mi
5:00 AM61 °FPassing clouds.3 mph45%29.92 "Hg5 mi
4:00 AM64 °FPassing clouds.No wind40%29.92 "Hg5 mi
3:00 AM64 °FClear.3 mph40%29.92 "Hg10 mi
2:00 AM64 °FPassing clouds.6 mph43%29.92 "HgN/A
1:00 AM64 °FPassing clouds.10 mph43%29.92 "HgN/A
12:00 AM66 °FClear.13 mph40%29.89 "Hg10 mi
11:00 PM
Wed, May 4
70 °FClear.8 mph27%29.86 "Hg10 mi
10:00 PM72 °FPassing clouds.10 mph25%29.83 "HgN/A
9:00 PM72 °FPassing clouds.15 mph25%29.83 "HgN/A
8:00 PM73 °FPassing clouds.20 mph23%29.83 "HgN/A
7:00 PM73 °FScattered clouds.24 mph25%29.80 "HgN/A
6:00 PM77 °FScattered clouds.22 mph21%29.77 "HgN/A
5:00 PM81 °FScattered clouds.8 mph15%29.77 "HgN/A
4:00 PM81 °FScattered clouds.8 mph15%29.77 "HgN/A
3:00 PM81 °FScattered clouds.10 mph14%29.77 "HgN/A
2:00 PM81 °FPassing clouds.8 mph14%29.80 "HgN/A
1:00 PM77 °FSunny.13 mph19%29.83 "Hg10 mi
12:00 PM77 °FSunny.10 mph14%29.80 "Hg10 mi
11:00 AM75 °FSunny.15 mph14%29.80 "Hg10 mi
10:00 AM72 °FPassing clouds.10 mph19%29.80 "HgN/A
9:00 AM66 °FScattered clouds.6 mph26%29.80 "HgN/A
Weather by CustomWeather, © 2016

See weather overviewHow to use our weather pages